This is the latest recevied weather packets stored in our database for station/object K1FFK-1. If no packets are shown the sender has not sent any weather packets the latest 1 day(s).
| Time | Temp. | Humidity | Pressure | Rain* | Wind** | Luminosity | Snow |
|---|---|---|---|---|---|---|---|
| 1778041294 | 13.33° C | 73% | 1014.4 hPa | 0 mm | - | - | - |
| 1778040695 | 13.33° C | 70% | 1014.2 hPa | 0 mm | - | - | - |
| 1778040094 | 13.89° C | 68% | 1014.2 hPa | 0 mm | - | - | - |
| 1778039494 | 13.89° C | 68% | 1014 hPa | 0 mm | - | - | - |
| 1778038895 | 13.89° C | 68% | 1014 hPa | 0 mm | - | - | - |
| 1778037694 | 13.33° C | 72% | 1014.3 hPa | 0 mm | - | - | - |
| 1778035294 | 13.33° C | 76% | 1014.7 hPa | 0 mm | - | - | - |
| 1778034694 | 13.33° C | 75% | 1014.8 hPa | 0 mm | - | - | - |
| 1778034094 | 13.33° C | 73% | 1014.9 hPa | 0 mm | - | - | - |
| 1778033494 | 13.89° C | 73% | 1014.8 hPa | 0 mm | - | - | - |
| 1778032294 | 13.33° C | 75% | 1014.6 hPa | 0 mm | - | - | - |
| 1778031693 | 12.78° C | 77% | 1014.6 hPa | 0 mm | - | - | - |
| 1778031094 | 13.33° C | 82% | 1014.5 hPa | 0 mm | - | - | - |
| 1778030494 | 13.89° C | 72% | 1014.4 hPa | 0 mm | - | - | - |
| 1778029893 | 13.33° C | 73% | 1014.2 hPa | 0 mm | - | - | - |
| 1778028693 | 13.33° C | 79% | 1014.2 hPa | 0 mm | - | - | - |
| 1778028094 | 13.33° C | 73% | 1014.1 hPa | 0 mm | - | - | - |
| 1778027494 | 13.33° C | 73% | 1013.9 hPa | 0 mm | - | - | - |
| 1778026895 | 12.78° C | 75% | 1013.7 hPa | 0 mm | - | - | - |
| 1778025694 | 12.22° C | 80% | 1013.7 hPa | 0 mm | - | - | - |
* Rain latest hour (hover to see other rain measurements)
** Current wind speed in m/s (hover to see current wind gust speed)